Regional Weather Roundup
Issued by NWS Wakefield, VA

Home | Current Version | Previous Version | Graphics & Text | Print | Product List | Glossary On
Versions: 1 2 3 4 5 6 7 8 9 10 11 12 13 14 15 16 17 18 19 20 21 22 23 24 25 26 27 28 29 30 31 32 33 34 35 36 37 38 39 40 41 42 43 44 45 46 47 48 49 50
950
ASUS41 KAKQ 211015
RWRAKQ

REGIONAL WEATHER ROUNDUP
NATIONAL WEATHER SERVICE WAKEFIELD VA
500 AM EST SAT JAN 21 2017

Note: "fair" indicates few or no clouds below 12,000 feet with no
significant weather and/or obstructions to visibility. * = Denotes
station may not report precipitation (e.g., rain,snow,etc.),
thunder or fog.

VAZ042-051-052>054-056-211100-
NORTHERN VIRGINIA

CITY           SKY/WX    TMP DP  RH WIND       PRES   REMARKS
WASH NATIONAL  CLOUDY    48  47  96 SW5       29.91S FOG
DULLES         CLOUDY    47  46  97 S5        29.90S FOG
FORT BELVOIR   CLOUDY    47  46  96 S3        29.91R FOG
QUANTICO       FOG       46  46 100 SW5       29.91F VSB 1/2
FREDERICKSBRG* CLOUDY    49  49 100 S3        29.90F FOG
STAFFORD*      CLOUDY    47  47 100 CALM      29.94F FOG
WARRENTON      CLOUDY    48  46  91 CALM      29.89F FOG
CULPEPER*      CLOUDY    48  48 100 CALM      29.91S FOG
MANASSAS*      NOT AVBL
LEESBURG*      FOG       48  48 100 CALM      29.90F VSB 1
WINCHESTER     FOG       39  39 100 CALM      29.89S VSB 1/4
FRONT ROYAL*   CLOUDY    37  37 100 CALM      29.88S VSB 1/4
LURAY*         FOG       43  43 100 S3        29.88F VSB 1/4
$$

VAZ048-049-060>072-079>083-211100-
CENTRAL AND SOUTH CENTRAL VIRGINIA

CITY           SKY/WX    TMP DP  RH WIND       PRES   REMARKS
RICHMOND       FOG       47  47 100 S3        29.91F VSB 1/2
CHESTERFIELD*  CLOUDY    48  34  57 CALM      29.92F
PETERSBURG*    LGT RAIN  46  46 100 CALM      29.91F
HANOVER        FOG       48  46  93 CALM      29.91F VSB 3/4
TAPPAHANNOCK*  FOG       47  47 100 S5        29.92F VSB 1/2
QUINTON*       CLOUDY    47  47 100 CALM      29.92R FOG
CHARLOTTSVILLE FOG       49  47  93 SW3       29.88F VSB 1/4
GORDONSVILLE*  FOG       47  47 100 S3        29.89F VSB 1/2
ORANGE*          N/A     48  48 100 CALM      29.91F FOG
LOUISA*        FOG       52  50  93 CALM      29.88F VSB 3/4
BUMPASS*       CLOUDY    47  47 100 CALM      29.90S VSB 1/2
FARMVILLE*     CLOUDY    49  49 100 CALM      29.89F FOG
CREWE*         CLOUDY    47  47 100 CALM      29.91F
FORT PICKETT*  CLOUDY    47  43  88 CALM      29.91F VSB 1/2
CHASE CITY*    CLOUDY    48  47  95 CALM      29.91S VSB 1/2
CLARKSVILLE*   CLOUDY    48  48 100 CALM      29.91S VSB 1/4
SOUTH HILL*    CLOUDY    47  47 100 CALM      29.97S VSB 3/4
LAWRENCEVILLE* CLOUDY    47  47  97 CALM      29.90F VSB 1/2
EMPORIA*       FOG       46  46 100 CALM      29.93F VSB 1/2
$$

VAZ088>098-211100-
SOUTHEAST VIRGINIA

CITY           SKY/WX    TMP DP  RH WIND       PRES   REMARKS
NORFOLK        FOG       47  46  97 CALM      29.92S VSB 3/4
VIRGINIA BEACH CLOUDY    47  46  97 CALM      29.92F FOG
NORFOLK NAVAL  FOG       48  46  93 CALM      29.94S VSB 1/2
WEST POINT*    CLOUDY    46  46 100 CALM      29.93S
SALUDA*        CLOUDY    45  45 100 CALM      29.92F VSB 3/4
NEWPORT NEWS   CLOUDY    47  47 100 CALM      29.93S FOG
LANGLEY AFB    CLOUDY    48  48 100 CALM      29.92S FOG
FORT EUSTIS    CLOUDY    48  46  93 CALM      29.90S FOG
WILLIAMSBURG*  CLOUDY    48  48 100 CALM      29.93S
HR EXEC AP*    CLOUDY    48  45  87 CALM      29.92S VSB 1
FRANKLIN*      FOG       47  46  98 CALM      29.93F VSB 1/2
US460-WAKEFLD  FOG       47  47 100 CALM      29.92F VSB 1/4
$$

VAZ020-022-025-037-045-211100-
WEST CENTRAL AND SOUTHWEST VIRGINIA

CITY           SKY/WX    TMP DP  RH WIND       PRES   REMARKS
STAUNTON*      FOG       45  45 100 S3        29.90S VSB 1/4
WAYNESBORO*    CLOUDY    42  40  96 CALM      29.88S
HOT SPRINGS VA MOCLDY    48  46  93 W9        29.88S
LYNCHBURG      FOG       47  47 100 CALM      29.91F VSB 1/2
DANVILLE       FOG       50  50 100 CALM      29.90F VSB 1/4
SOUTH BOSTON*  CLOUDY    50  48  95 CALM      29.90F VSB 1/4
MARTINSVILLE   FOG       48  47  97 CALM      29.92S VSB 3/4
ROANOKE        FOG       46  46 100 CALM      29.92S VSB 1/4
BLACKSBURG     FOG       40  40 100 CALM      29.92S VSB 1/4
DUBLIN*        FOG       43  43 100 CALM      29.91S VSB 1/4
MARION*        FOG       41  40  96 CALM      29.92F VSB 1/4
HILLSVILLE*    PTCLDY    45  45 100 CALM      29.88F
RICHLANDS*     FAIR     N/A N/A N/A CALM      29.87F
WISE*          MOCLDY    54  46  76 S5        29.88S
ABINGDON*      PTCLDY    49  48  98 E3        29.87F
$$

MDZ021>025-VAZ099-100-211100-
SOUTHERN MARYLAND AND THE DELMARVA PENINSULA

CITY           SKY/WX    TMP DP  RH WIND       PRES   REMARKS
PATUXENT RIVER CLOUDY    46  46 100 S5        29.91F FOG
BAY BRIDGE APT CLOUDY    45  45 100 CALM      29.92S FOG
LEONARDTOWN    CLOUDY    45  45 100 CALM      29.92F
DOVER          CLOUDY    45  45 100 CALM      29.91F FOG
GEORGETOWN     CLOUDY    46  45  96 CALM      29.92F FOG
EASTON         CLOUDY    47  45  95 CALM      29.95F FOG
CAMBRIDGE      CLOUDY    45  45 100 CALM      29.91F
SALISBURY      CLOUDY    46  45  96 CALM      29.92F FOG
OCEAN CITY     CLOUDY    46  46 100 CALM      29.93F FOG
WALLOPS ISLAND CLOUDY    46  46 100 CALM      29.93S FOG
ACCOMACK*      CLOUDY    47  46  99 CALM      29.93S FOG
$$

NCZ012>017-030>032-211100-
NORTH CENTRAL AND EASTERN NORTH CAROLINA

CITY           SKY/WX    TMP DP  RH WIND       PRES   REMARKS
ROANOKE RAPIDS FOG       46  46 100 CALM      29.92F VSB 1/4
RALEIGH        FOG       51  51 100 NE3       29.91F VSB 1/8
ELIZABETH CITY FOG       48  48 100 NE6       29.93S VSB 1/2
AHOSKIE*       FOG       46  46  99 CALM      29.93F VSB 1/4
EDENTON*       FOG       49  49  99 CALM      29.93S VSB 3/4
CURRITUCK*     FOG       49  49 100 N3        29.94S VSB 1/2
KILL DEVIL HLS NOT AVBL
MANTEO         FOG       49  49 100 N7        29.93S VSB 1
CAPE HATTERAS  FOG       50  49  96 N5        29.92R VSB 1/4
TARBORO*       NOT AVBL
GOLDSBORO      FOG       52  52 100 E7        29.88F VSB 3/4
WASHINGTON     FOG       49  48  99 NE3         N/A  VSB 1/2
GREENVILLE     RAIN      50  50 100 CALM      29.95R
NEW BERN       FOG       49  49 100 E3        29.93S VSB 1/2
WILMINGTON     FOG       53  53 100 E3        29.90F VSB 3/4
$$

VAZ048-211100-
ELSEWHERE

CITY           SKY/WX    TMP DP  RH WIND       PRES   REMARKS
HARRISBURG PA  FOG       39  39 100 CALM      29.89F VSB 1/4
BALTIMORE      FOG       46  46 100 CALM      29.90F VSB 1/2
ANNAPOLIS      FOG       43  41  93 SE5       29.91F VSB 1/4
ANDREWS AFB    CLOUDY    46  46 100 W5        29.90R FOG
PHILADELPHIA   CLOUDY    42  41  96 CALM      29.92F FOG
HENDERSON NC   FOG       46  46  99 CALM      29.91S VSB 1/2
GREENSBORO     FOG       51  51 100 CALM      29.89F VSB 1/4
ROCKY MOUNT    FOG       49  49 100 N3        29.92S VSB 1/2
$$

VAZ100-211100-
MARINE

STATION/POSITION TIME  TEMP    WIND        PRES    WAVE   SWELL
                       AIR SEA DIR/SP/G            HT/PER HT/PER
                 (UTC) (F)     (DEG/KT/KT) (MB)    (FT/S) (FT/S)
CAPE MAY NJ      0936   43 41   CALM  /  1 1013.0F
LEWES DE         0942   45 42  260/  2/  2 1013.2F
OCEAN-CITY-INLET 0942   45 42   10/  1/  1 1013.7F
WACHAPREAGUE VA  0942   47 47   CALM  /  1 1013.5S
THOMAS POINT MD  1000   43 39  170/  6/  6   N/A
GOOSES REEF MD   1000   42     140/  4/  4 1013.4    0
COVE POINT MD    0942   44     190/  5/  5 1013.4F
SOLOMONS ISLAND  0942   46 42  200/  4/  5   N/A
BISHOPS HEAD MD  0942   44 44  160/  2/  2 1013.3F
PINEY POINT MD   0948          220/  4/  5   N/A
POTOMAC MD       1000   45 42  190/  4/  6 1012.1    0
CAMBRIDGE MD     0942   46 40  200/  2/  3 1012.4F
LEWISETTA VA     0942   47 44  230/  3/  4 1012.8F
RAPPAHANNOCK LGT 0948           80/  2/  2 1013.8F
STINGRAY PT      0950   43     140/  2/  2 1013.7F
YORK RVR RNG VA  0942   45     100/  2/  3 1012.7F
YORKTOWN VA      0942   45 43  100/  3/  4 1012.9F
JAMESTOWN VA     1000   46 45  160/  2/  4   N/A     0
DOMINION TERM VA 0942   46     140/  2/  3 1013.4F
KIPTOPEKE VA     0948      44   60/  3/  4   N/A
CHES BAY BRIDGE  0942   44 44   30/  3/  4 1013.2F
CAPE HENRY VA    0942   45     350/  2/  5   N/A
WILLOUBY STN VA  0942   46     130/  2/  2 1014.2S
S CRANEY ISL VA  0942   47        CALM     1013.2S
CAPE HENRY BUOY  0942      48                N/A     3/11   2/11
OFFSHORE WE BUOY 0951      49                N/A     3/11   2/11
64NM E OF VA BCH 0950   53 58  350/ 12/ 14 1012.7S   5/10   5/10
DUCK PIER NC     0948   47 45   10/  7/ 10 1012.7F
44100 DUCK FRF   0935      48                N/A     4/11   2/11
44056 DUCK FRF   0930      45                N/A     3/11   2/11
OREGON INLET NC  0942   48 48  350/  6/  9 1013.0R
HATTERAS NC      0948   50 55  340/  8/  9 1012.9R
DIAMOND SHLS NC  0950   57 74   10/ 14/ 16 1012.5F   5/11   3/11
CAPE LOOKOUT NC  0900   50      20/  7/  8 1012.8F
$$




USA.gov is the U.S. government's official web portal to all federal, state and local government web resources and services.